AZU420 MGGT-MMUN

Flight info

Callsign AZU420
Flight time 1h 18m
Altitude 39000
Route AUR DCT VILDA DCT JERON DCT AMINU DCT CTM UG765 PAULE PAULE2G
Aircraft A339/H-SADE1E2E3GHIJ3J5M1P2RWXY/LB2D1

Departure

Time 2026-04-21 05:40
Airport La Aurora International Airport (MGGT)

Arrival

Time 2026-04-21 06:58
Airport Cancún International Airport (MMUN)
Time Latitude Longitude Altitude Speed Heading
2026-04-21 05:14 14.59291 -90.52784 4940 ft 0 kts 16°
2026-04-21 05:26 14.59288 -90.52785 4940 ft 2 kts 17°
2026-04-21 05:26 14.59274 -90.52789 4939 ft 2 kts 17°
2026-04-21 05:27 14.59260 -90.52794 4939 ft 2 kts 17°
2026-04-21 05:27 14.59246 -90.52801 4938 ft 2 kts 46°
2026-04-21 05:27 14.59237 -90.52814 4938 ft 2 kts 69°
2026-04-21 05:27 14.59234 -90.52828 4938 ft 2 kts 92°
2026-04-21 05:28 14.59235 -90.52838 4938 ft 0 kts 107°
2026-04-21 05:28 14.59237 -90.52844 4938 ft 0 kts 108°
2026-04-21 05:30 14.59236 -90.52843 4938 ft 1 kts 108°
2026-04-21 05:30 14.59229 -90.52818 4938 ft 5 kts 107°
2026-04-21 05:31 14.59215 -90.52775 4937 ft 7 kts 107°
2026-04-21 05:31 14.59197 -90.52723 4936 ft 7 kts 119°
2026-04-21 05:31 14.59144 -90.52702 4934 ft 9 kts 180°
2026-04-21 05:31 14.59065 -90.52721 4932 ft 13 kts 197°
2026-04-21 05:32 14.58965 -90.52751 4928 ft 16 kts 197°
2026-04-21 05:32 14.58860 -90.52782 4924 ft 9 kts 188°
2026-04-21 05:32 14.58800 -90.52752 4923 ft 10 kts 122°
2026-04-21 05:32 14.58773 -90.52697 4922 ft 5 kts 144°
2026-04-21 05:33 14.58723 -90.52689 4921 ft 11 kts 188°
2026-04-21 05:33 14.58631 -90.52718 4918 ft 16 kts 199°
2026-04-21 05:33 14.58509 -90.52757 4913 ft 19 kts 197°
2026-04-21 05:33 14.58371 -90.52801 4905 ft 22 kts 197°
2026-04-21 05:34 14.58208 -90.52854 4897 ft 25 kts 197°
2026-04-21 05:34 14.58039 -90.52908 4895 ft 24 kts 197°
2026-04-21 05:34 14.57879 -90.52960 4895 ft 23 kts 197°
2026-04-21 05:34 14.57730 -90.53008 4897 ft 20 kts 197°
2026-04-21 05:35 14.57601 -90.53049 4900 ft 18 kts 197°
2026-04-21 05:35 14.57484 -90.53087 4902 ft 16 kts 197°
2026-04-21 05:35 14.57370 -90.53123 4901 ft 16 kts 197°
2026-04-21 05:35 14.57252 -90.53162 4898 ft 18 kts 197°
2026-04-21 05:36 14.57138 -90.53198 4893 ft 5 kts 198°
2026-04-21 05:36 14.57136 -90.53199 4893 ft 0 kts 198°
2026-04-21 05:37 14.57128 -90.53201 4893 ft 5 kts 196°
2026-04-21 05:37 14.57076 -90.53191 4893 ft 8 kts 141°
2026-04-21 05:37 14.57077 -90.53147 4894 ft 6 kts 36°
2026-04-21 05:37 14.57103 -90.53139 4895 ft 2 kts 13°
2026-04-21 05:38 14.57124 -90.53133 4895 ft 3 kts 15°
2026-04-21 05:38 14.57133 -90.53131 4895 ft 0 kts 17°
2026-04-21 05:39 14.57316 -90.53072 4902 ft 57 kts 17°
2026-04-21 05:39 14.57886 -90.52890 4898 ft 112 kts 17°
2026-04-21 05:39 14.58783 -90.52600 4925 ft 155 kts 18°
2026-04-21 05:40 14.59864 -90.52251 5361 ft 160 kts 18°
2026-04-21 05:40 14.60908 -90.51913 5951 ft 156 kts 18°
2026-04-21 05:40 14.61938 -90.51576 6524 ft 155 kts 18°
2026-04-21 05:40 14.62961 -90.51244 7034 ft 152 kts 18°
2026-04-21 05:41 14.64018 -90.50902 7288 ft 163 kts 19°
2026-04-21 05:41 14.65062 -90.50350 7522 ft 176 kts 36°
2026-04-21 05:41 14.66064 -90.49525 7774 ft 189 kts 39°
2026-04-21 05:41 14.67127 -90.48619 8025 ft 204 kts 39°
2026-04-21 05:42 14.68271 -90.47665 8295 ft 220 kts 38°
2026-04-21 05:42 14.69509 -90.46653 8583 ft 236 kts 38°
2026-04-21 05:42 14.70854 -90.45567 8880 ft 253 kts 38°
2026-04-21 05:42 14.72303 -90.44408 9178 ft 270 kts 38°
2026-04-21 05:43 14.73832 -90.43189 9627 ft 281 kts 38°
2026-04-21 05:43 14.75388 -90.41952 10271 ft 284 kts 38°
2026-04-21 05:43 14.76960 -90.40703 10777 ft 293 kts 38°
2026-04-21 05:43 14.78621 -90.39383 11070 ft 310 kts 38°
2026-04-21 05:44 14.80388 -90.37979 11363 ft 327 kts 38°
2026-04-21 05:44 14.82246 -90.36504 11654 ft 344 kts 38°
2026-04-21 05:44 14.84191 -90.34959 11934 ft 360 kts 38°
2026-04-21 05:44 14.86222 -90.33347 12278 ft 373 kts 39°
2026-04-21 05:45 14.88293 -90.31702 12841 ft 379 kts 38°
2026-04-21 05:45 14.90397 -90.30032 13435 ft 384 kts 39°
2026-04-21 05:45 14.92540 -90.28328 14022 ft 388 kts 39°
2026-04-21 05:45 14.94700 -90.26611 14621 ft 392 kts 38°
2026-04-21 05:46 14.96871 -90.24883 15200 ft 396 kts 38°
2026-04-21 05:46 14.98226 -90.23805 15550 ft 398 kts 38°
2026-04-21 05:47 15.00072 -90.22337 16026 ft 400 kts 38°
2026-04-21 05:47 15.02289 -90.20572 16567 ft 404 kts 38°
2026-04-21 05:47 15.04512 -90.18803 17088 ft 407 kts 38°
2026-04-21 05:47 15.06775 -90.17003 17598 ft 411 kts 38°
2026-04-21 05:48 15.09097 -90.15256 18101 ft 415 kts 35°
2026-04-21 05:48 15.09595 -90.14909 18207 ft 415 kts 34°
2026-04-21 05:50 15.10408 -90.14359 18377 ft 417 kts 33°
2026-04-21 05:50 15.11360 -90.13747 18575 ft 418 kts 32°
2026-04-21 05:50 15.13838 -90.12297 19062 ft 421 kts 28°
2026-04-21 05:51 15.15714 -90.11282 19423 ft 424 kts 28°
2026-04-21 05:51 15.16692 -90.10757 19605 ft 425 kts 28°
2026-04-21 05:51 15.19334 -90.09348 20089 ft 428 kts 28°
2026-04-21 05:51 15.22002 -90.07927 20562 ft 431 kts 28°
2026-04-21 05:52 15.24650 -90.06516 21024 ft 434 kts 28°
2026-04-21 05:52 15.27343 -90.05077 21482 ft 437 kts 28°
2026-04-21 05:52 15.30077 -90.03616 21927 ft 440 kts 28°
2026-04-21 05:52 15.32795 -90.02163 22364 ft 442 kts 28°
2026-04-21 05:53 15.35563 -90.00682 22805 ft 445 kts 28°
2026-04-21 05:53 15.38330 -89.99201 23231 ft 448 kts 28°
2026-04-21 05:53 15.41101 -89.97716 23628 ft 452 kts 28°
2026-04-21 05:53 15.43899 -89.96217 24035 ft 455 kts 28°
2026-04-21 05:54 15.46717 -89.94706 24440 ft 459 kts 28°
2026-04-21 05:54 15.49581 -89.93170 24840 ft 462 kts 28°
2026-04-21 05:54 15.52449 -89.91631 25227 ft 465 kts 28°
2026-04-21 05:54 15.55341 -89.90079 25605 ft 468 kts 28°
2026-04-21 05:55 15.58260 -89.88512 25965 ft 472 kts 28°
2026-04-21 05:55 15.61170 -89.86949 26330 ft 475 kts 28°
2026-04-21 05:55 15.64109 -89.85370 26680 ft 478 kts 28°
2026-04-21 05:55 15.67096 -89.83765 27033 ft 481 kts 28°
2026-04-21 05:56 15.70076 -89.82163 27382 ft 484 kts 28°
2026-04-21 05:56 15.73065 -89.80556 27720 ft 487 kts 28°
2026-04-21 05:56 15.76097 -89.78926 28067 ft 490 kts 28°
2026-04-21 05:56 15.79110 -89.77305 28486 ft 490 kts 28°
2026-04-21 05:57 15.82137 -89.75677 28997 ft 489 kts 28°
2026-04-21 05:57 15.85159 -89.74049 29514 ft 487 kts 28°
2026-04-21 05:57 15.88169 -89.72426 30008 ft 486 kts 27°
2026-04-21 05:57 15.91169 -89.70808 30494 ft 485 kts 27°
2026-04-21 05:58 15.94153 -89.69199 30990 ft 484 kts 27°
2026-04-21 05:58 15.97119 -89.67600 31468 ft 483 kts 27°
2026-04-21 05:58 16.00137 -89.65971 31922 ft 483 kts 27°
2026-04-21 05:58 16.03115 -89.64364 32349 ft 482 kts 27°
2026-04-21 05:59 16.06083 -89.62762 32794 ft 481 kts 27°
2026-04-21 05:59 16.09040 -89.61167 33277 ft 480 kts 26°
2026-04-21 05:59 16.12008 -89.59564 33756 ft 479 kts 27°
2026-04-21 06:00 16.17889 -89.56387 34751 ft 475 kts 26°
2026-04-21 06:00 16.20826 -89.54800 35236 ft 473 kts 26°
2026-04-21 06:00 16.23747 -89.53220 35696 ft 471 kts 26°
2026-04-21 06:00 16.26667 -89.51640 36105 ft 470 kts 26°
2026-04-21 06:01 16.29562 -89.50074 36484 ft 470 kts 26°
2026-04-21 06:01 16.32462 -89.48504 36856 ft 469 kts 26°
2026-04-21 06:01 16.35359 -89.46935 37207 ft 468 kts 26°
2026-04-21 06:01 16.38254 -89.45365 37509 ft 469 kts 26°
2026-04-21 06:02 16.41149 -89.43798 37747 ft 470 kts 26°
2026-04-21 06:02 16.44071 -89.42216 37946 ft 472 kts 26°
2026-04-21 06:02 16.46979 -89.40640 38152 ft 474 kts 26°
2026-04-21 06:02 16.49901 -89.39056 38367 ft 475 kts 26°
2026-04-21 06:03 16.52835 -89.37463 38595 ft 476 kts 26°
2026-04-21 06:03 16.55781 -89.35864 38824 ft 477 kts 26°
2026-04-21 06:03 16.58728 -89.34263 39053 ft 478 kts 26°
2026-04-21 06:04 16.64641 -89.31052 39105 ft 479 kts 26°
2026-04-21 06:04 16.70570 -89.27828 39109 ft 479 kts 26°
2026-04-21 06:05 16.76481 -89.24613 39114 ft 480 kts 26°
2026-04-21 06:05 16.82394 -89.21394 39107 ft 480 kts 26°
2026-04-21 06:06 16.88314 -89.18169 39102 ft 480 kts 26°
2026-04-21 06:06 16.94269 -89.14922 39098 ft 480 kts 26°
2026-04-21 06:07 17.00171 -89.11702 39100 ft 480 kts 26°
2026-04-21 06:07 17.06104 -89.08463 39092 ft 480 kts 25°
2026-04-21 06:08 17.12043 -89.05218 39080 ft 480 kts 26°
2026-04-21 06:08 17.17955 -89.01985 39074 ft 480 kts 26°
2026-04-21 06:09 17.23892 -88.98738 39069 ft 480 kts 25°
2026-04-21 06:09 17.29791 -88.95526 39067 ft 480 kts 24°
2026-04-21 06:10 17.35832 -88.92442 39066 ft 480 kts 23°
2026-04-21 06:10 17.41819 -88.89414 39062 ft 480 kts 24°
2026-04-21 06:11 17.47848 -88.86345 39064 ft 481 kts 24°
2026-04-21 06:11 17.53861 -88.83276 39058 ft 481 kts 24°
2026-04-21 06:12 17.59876 -88.80201 39056 ft 481 kts 24°
2026-04-21 06:12 17.65940 -88.77098 39056 ft 481 kts 23°
2026-04-21 06:13 17.71961 -88.74014 39057 ft 482 kts 23°
2026-04-21 06:13 17.77985 -88.70929 39058 ft 482 kts 23°
2026-04-21 06:14 17.84001 -88.67842 39054 ft 482 kts 23°
2026-04-21 06:14 17.90053 -88.64736 39056 ft 483 kts 23°
2026-04-21 06:15 17.96066 -88.61649 39053 ft 482 kts 23°
2026-04-21 06:15 18.02112 -88.58542 39051 ft 482 kts 23°
2026-04-21 06:16 18.08131 -88.55444 39046 ft 482 kts 23°
2026-04-21 06:16 18.14191 -88.52324 39046 ft 483 kts 23°
2026-04-21 06:17 18.20215 -88.49222 39045 ft 483 kts 23°
2026-04-21 06:17 18.26239 -88.46115 39047 ft 483 kts 23°
2026-04-21 06:18 18.32264 -88.43007 39048 ft 483 kts 23°
2026-04-21 06:18 18.38331 -88.39874 39049 ft 483 kts 23°
2026-04-21 06:19 18.44372 -88.36753 39049 ft 483 kts 23°
2026-04-21 06:19 18.50358 -88.33549 39048 ft 485 kts 26°
2026-04-21 06:20 18.56080 -88.29786 39048 ft 487 kts 31°
2026-04-21 06:20 18.61735 -88.25806 39049 ft 487 kts 31°
2026-04-21 06:21 18.67361 -88.21840 39045 ft 488 kts 31°
2026-04-21 06:21 18.73015 -88.17863 39044 ft 488 kts 31°
2026-04-21 06:22 18.78690 -88.13870 39045 ft 488 kts 31°
2026-04-21 06:22 18.84325 -88.09902 39044 ft 488 kts 31°
2026-04-21 06:23 18.89995 -88.05907 39041 ft 489 kts 30°
2026-04-21 06:23 18.95626 -88.01939 39041 ft 489 kts 30°
2026-04-21 06:24 19.01300 -87.97935 39039 ft 489 kts 30°
2026-04-21 06:24 19.06979 -87.93923 39044 ft 489 kts 30°
2026-04-21 06:25 19.12603 -87.89949 39036 ft 489 kts 30°
2026-04-21 06:25 19.15434 -87.87946 38681 ft 489 kts 30°
2026-04-21 06:25 19.18281 -87.85932 37795 ft 496 kts 30°
2026-04-21 06:25 19.21169 -87.83890 36792 ft 502 kts 30°
2026-04-21 06:26 19.24059 -87.81845 36054 ft 502 kts 30°
2026-04-21 06:26 19.26979 -87.79777 35412 ft 500 kts 30°
2026-04-21 06:26 19.29837 -87.77750 34810 ft 498 kts 30°
2026-04-21 06:26 19.32735 -87.75695 34199 ft 496 kts 30°
2026-04-21 06:27 19.35583 -87.73673 33598 ft 495 kts 30°
2026-04-21 06:27 19.38434 -87.71648 32997 ft 493 kts 30°
2026-04-21 06:27 19.41306 -87.69610 32430 ft 492 kts 30°
2026-04-21 06:27 19.44118 -87.67612 31844 ft 491 kts 30°
2026-04-21 06:28 19.46975 -87.65583 31232 ft 491 kts 30°
2026-04-21 06:28 19.49805 -87.63571 30609 ft 492 kts 31°
2026-04-21 06:28 19.52661 -87.61540 29968 ft 492 kts 31°
2026-04-21 06:28 19.55492 -87.59526 29318 ft 492 kts 31°
2026-04-21 06:29 19.58375 -87.57475 28647 ft 493 kts 31°
2026-04-21 06:29 19.61216 -87.55450 27978 ft 494 kts 31°
2026-04-21 06:29 19.64060 -87.53421 27370 ft 492 kts 31°
2026-04-21 06:29 19.66888 -87.51399 26941 ft 486 kts 31°
2026-04-21 06:30 19.69659 -87.49418 26512 ft 481 kts 31°
2026-04-21 06:30 19.72411 -87.47450 26342 ft 478 kts 31°
2026-04-21 06:30 19.75188 -87.45464 26267 ft 478 kts 31°
2026-04-21 06:30 19.77939 -87.43497 26171 ft 477 kts 31°
2026-04-21 06:31 19.80571 -87.41397 26005 ft 469 kts 38°
2026-04-21 06:31 19.82830 -87.38995 25983 ft 457 kts 46°
2026-04-21 06:31 19.84768 -87.36376 26010 ft 443 kts 51°
2026-04-21 06:31 19.86585 -87.33736 26035 ft 440 kts 52°
2026-04-21 06:32 19.88382 -87.31097 26036 ft 441 kts 52°
2026-04-21 06:32 19.90187 -87.28451 25722 ft 442 kts 52°
2026-04-21 06:32 19.91991 -87.25818 25272 ft 440 kts 52°
2026-04-21 06:32 19.93782 -87.23212 24880 ft 436 kts 52°
2026-04-21 06:33 19.95554 -87.20638 24506 ft 432 kts 52°
2026-04-21 06:33 19.97312 -87.18085 24153 ft 428 kts 52°
2026-04-21 06:33 19.99076 -87.15524 23794 ft 424 kts 52°
2026-04-21 06:33 20.00807 -87.13011 23446 ft 420 kts 52°
2026-04-21 06:34 20.02530 -87.10507 23097 ft 416 kts 52°
2026-04-21 06:34 20.04218 -87.08053 22747 ft 412 kts 51°
2026-04-21 06:34 20.05909 -87.05594 22409 ft 408 kts 51°
2026-04-21 06:34 20.07556 -87.03199 22095 ft 404 kts 51°
2026-04-21 06:35 20.09205 -87.00801 21773 ft 400 kts 51°
2026-04-21 06:35 20.10847 -86.98413 21437 ft 397 kts 51°
2026-04-21 06:35 20.12464 -86.96059 21092 ft 394 kts 51°
2026-04-21 06:35 20.14086 -86.93697 20733 ft 392 kts 51°
2026-04-21 06:36 20.15673 -86.91385 20386 ft 389 kts 51°
2026-04-21 06:36 20.17266 -86.89063 20248 ft 380 kts 51°
2026-04-21 06:36 20.18810 -86.86809 20215 ft 367 kts 51°
2026-04-21 06:36 20.20298 -86.84635 20165 ft 356 kts 51°
2026-04-21 06:37 20.21734 -86.82539 20131 ft 345 kts 51°
2026-04-21 06:37 20.23128 -86.80514 19840 ft 344 kts 51°
2026-04-21 06:37 20.24579 -86.78423 19308 ft 349 kts 51°
2026-04-21 06:37 20.26024 -86.76341 18836 ft 353 kts 51°
2026-04-21 06:38 20.27472 -86.74251 18388 ft 355 kts 51°
2026-04-21 06:38 20.28595 -86.72628 18200 ft 351 kts 51°
2026-04-21 06:38 20.30026 -86.70556 17952 ft 347 kts 51°
2026-04-21 06:38 20.31452 -86.68490 17711 ft 342 kts 51°
2026-04-21 06:39 20.32848 -86.66468 17477 ft 338 kts 51°
2026-04-21 06:39 20.34244 -86.64447 17214 ft 335 kts 51°
2026-04-21 06:39 20.35631 -86.62440 16921 ft 333 kts 51°
2026-04-21 06:39 20.37041 -86.60506 16618 ft 329 kts 42°
2026-04-21 06:40 20.38953 -86.59234 16267 ft 320 kts 13°
2026-04-21 06:40 20.41126 -86.59049 15971 ft 313 kts 349°
2026-04-21 06:40 20.43249 -86.59630 15672 ft 310 kts 342°
2026-04-21 06:40 20.45326 -86.60268 15346 ft 310 kts 343°
2026-04-21 06:41 20.47395 -86.60889 15030 ft 309 kts 343°
2026-04-21 06:41 20.49465 -86.61500 14771 ft 307 kts 343°
2026-04-21 06:41 20.51537 -86.62104 14547 ft 303 kts 344°
2026-04-21 06:41 20.53574 -86.62694 14335 ft 299 kts 344°
2026-04-21 06:42 20.55550 -86.63264 14135 ft 295 kts 344°
2026-04-21 06:42 20.57543 -86.63837 13941 ft 291 kts 344°
2026-04-21 06:42 20.59485 -86.64437 13728 ft 287 kts 337°
2026-04-21 06:42 20.61161 -86.65540 13525 ft 283 kts 321°
2026-04-21 06:43 20.62653 -86.66890 13345 ft 280 kts 319°
2026-04-21 06:43 20.64124 -86.68259 13165 ft 276 kts 319°
2026-04-21 06:43 20.65567 -86.69573 12992 ft 272 kts 320°
2026-04-21 06:43 20.67009 -86.70859 12809 ft 268 kts 321°
2026-04-21 06:44 20.68453 -86.72126 12581 ft 266 kts 321°
2026-04-21 06:44 20.69891 -86.73376 12329 ft 266 kts 322°
2026-04-21 06:44 20.71308 -86.74602 12105 ft 265 kts 322°
2026-04-21 06:44 20.72764 -86.75855 11873 ft 264 kts 322°
2026-04-21 06:45 20.74188 -86.77077 11638 ft 264 kts 322°
2026-04-21 06:45 20.75608 -86.78297 11403 ft 262 kts 322°
2026-04-21 06:45 20.77043 -86.79528 11151 ft 262 kts 323°
2026-04-21 06:45 20.78470 -86.80753 10919 ft 261 kts 323°
2026-04-21 06:46 20.79875 -86.81958 10706 ft 260 kts 323°
2026-04-21 06:46 20.81293 -86.83174 10468 ft 259 kts 323°
2026-04-21 06:46 20.82705 -86.84387 10229 ft 258 kts 322°
2026-04-21 06:46 20.84093 -86.85579 9994 ft 258 kts 323°
2026-04-21 06:47 20.85497 -86.86788 9764 ft 257 kts 323°
2026-04-21 06:47 20.86876 -86.87974 9550 ft 256 kts 323°
2026-04-21 06:47 20.88270 -86.89172 9310 ft 255 kts 323°
2026-04-21 06:47 20.89657 -86.90364 9067 ft 255 kts 323°
2026-04-21 06:48 20.91028 -86.91544 8822 ft 254 kts 323°
2026-04-21 06:48 20.92419 -86.92739 8587 ft 254 kts 324°
2026-04-21 06:48 20.93784 -86.93913 8377 ft 253 kts 323°
2026-04-21 06:48 20.95155 -86.95094 8145 ft 252 kts 323°
2026-04-21 06:49 20.96526 -86.96275 7919 ft 252 kts 323°
2026-04-21 06:49 20.97889 -86.97447 7711 ft 250 kts 324°
2026-04-21 06:49 20.99230 -86.98601 7571 ft 246 kts 323°
2026-04-21 06:49 21.00549 -86.99765 7382 ft 245 kts 318°
2026-04-21 06:50 21.01633 -87.01178 7259 ft 242 kts 307°
2026-04-21 06:50 21.02554 -87.02656 7157 ft 236 kts 306°
2026-04-21 06:50 21.03443 -87.04119 7055 ft 230 kts 306°
2026-04-21 06:50 21.04393 -87.05444 6925 ft 221 kts 327°
2026-04-21 06:51 21.05780 -87.05932 6784 ft 206 kts
2026-04-21 06:51 21.07083 -87.05508 6648 ft 193 kts 33°
2026-04-21 06:51 21.08048 -87.04541 6491 ft 184 kts 52°
2026-04-21 06:51 21.08801 -87.03461 6297 ft 182 kts 54°
2026-04-21 06:52 21.09552 -87.02370 6035 ft 182 kts 53°
2026-04-21 06:52 21.10313 -87.01287 5787 ft 181 kts 53°
2026-04-21 06:52 21.10966 -87.00156 5536 ft 181 kts 76°
2026-04-21 06:52 21.10769 -86.98832 5218 ft 188 kts 114°
2026-04-21 06:53 21.10041 -86.97703 5056 ft 177 kts 124°
2026-04-21 06:53 21.09299 -86.96686 4765 ft 174 kts 123°
2026-04-21 06:53 21.08558 -86.95629 4204 ft 185 kts 122°
2026-04-21 06:53 21.07812 -86.94494 3679 ft 190 kts 120°
2026-04-21 06:54 21.07092 -86.93282 3106 ft 196 kts 112°
2026-04-21 06:54 21.06956 -86.91933 2864 ft 178 kts 70°
2026-04-21 06:54 21.07750 -86.91042 2721 ft 168 kts 24°
2026-04-21 06:54 21.08940 -86.91157 2310 ft 185 kts 335°
2026-04-21 06:55 21.09702 -86.92274 1931 ft 198 kts 287°
2026-04-21 06:55 21.09480 -86.93730 1556 ft 203 kts 237°
2026-04-21 06:55 21.08385 -86.94559 1351 ft 184 kts 185°
2026-04-21 06:55 21.07301 -86.94285 1300 ft 150 kts 131°
2026-04-21 06:56 21.06838 -86.93333 940 ft 145 kts 104°
2026-04-21 06:56 21.06697 -86.92875 831 ft 144 kts 105°
2026-04-21 06:56 21.06295 -86.91946 656 ft 143 kts 118°
2026-04-21 06:56 21.05952 -86.91367 570 ft 143 kts 119°
2026-04-21 06:57 21.05453 -86.90570 396 ft 144 kts 120°
2026-04-21 06:57 21.04900 -86.89693 197 ft 141 kts 120°
2026-04-21 06:57 21.04349 -86.88810 45 ft 140 kts 121°
2026-04-21 06:57 21.03877 -86.88047 33 ft 100 kts 123°
2026-04-21 06:58 21.03586 -86.87585 35 ft 53 kts 122°
2026-04-21 06:58 21.03476 -86.87401 37 ft 13 kts 108°
2026-04-21 06:58 21.03513 -86.87360 36 ft 11 kts 356°
2026-04-21 06:58 21.03569 -86.87383 35 ft 10 kts 335°
2026-04-21 06:59 21.03637 -86.87420 34 ft 12 kts 333°
2026-04-21 06:59 21.03713 -86.87460 34 ft 12 kts 340°
2026-04-21 06:59 21.03764 -86.87448 34 ft 4 kts 62°
2026-04-21 06:59 21.03748 -86.87394 35 ft 11 kts 122°
2026-04-21 07:00 21.03695 -86.87310 37 ft 14 kts 123°
2026-04-21 07:00 21.03640 -86.87221 38 ft 9 kts 123°
2026-04-21 07:00 21.03612 -86.87172 39 ft 4 kts 105°
2026-04-21 07:00 21.03639 -86.87134 40 ft 7 kts 33°
2026-04-21 07:01 21.03659 -86.87119 40 ft 4 kts 33°
2026-04-21 07:01 21.03667 -86.87114 40 ft 0 kts 33°